Tracking 18032 objects as of 27-March-2017
HD Live streaming from Space Station
objects crossing your sky now

USA 11

Track USA 11 now!
USA 11 is classified as:


NORAD ID: 16116
Int'l Code: 1985-092B
Perigee: 36,144.1 km
Apogee: 36,174.7 km
Inclination: 15.2 °
Period: 1,454.8 minutes
Semi major axis: 42530 km
RCS: Unknown
Launch date: October 3, 1985
Source: United States (US)
Launch site: AIR FORCE EASTERN TEST RANGE (AFETR)
Your satellite tracking list
Your tracking list is empty





NASA's NSSDC Master Catalog

Two Line Element Set (TLE):
1 16116U 85092B   17073.78322586 0.00000000  00000-0  00000-0 0    01
2 16116  15.2028  15.0770 0003595 319.6860  40.2993  0.98981388    01
Source of the keplerian elements: McCants